Location: Newark
(53.3333°N, 83.7500°E)
Time: 04:32:35
(UTC+00:00)

Envisat - Visible Passes

Search period start: 16 September 2019 00:00
Search period end: 26 September 2019 00:00
Orbit: 764 x 766 km, 98.1° (Epoch: 15 September)

Date Brightness Start Highest point End Pass type
(mag) Time Alt. Az. Time Alt. Az. Time Alt. Az.
16 Sep 5.5 13:35:37 10° SW 13:39:44 25° W 13:43:54 10° NW visible
18 Sep 6.0 14:02:34 10° WSW 14:05:36 16° W 14:08:37 10° NW visible
19 Sep 5.2 13:23:58 10° SSW 13:28:22 29° W 13:32:49 10° NNW visible
21 Sep 5.9 13:50:36 10° SW 13:54:11 19° W 13:57:46 10° NW visible
22 Sep 4.8 13:12:22 10° SSW 13:17:01 35° W 13:21:42 10° NNW visible
23 Sep 6.2 14:18:15 10° WSW 14:20:05 12° W 14:21:55 10° WNW visible
24 Sep 5.6 13:38:47 10° SW 13:42:47 23° W 13:46:47 10° NW visible
25 Sep 4.4 13:00:52 10° S 13:05:41 43° W 13:10:33 10° NNW visible
